Time,TemperatureF,DewpointF,PressureIn,WindDirection,WindDirectionDegrees,WindSpeedMPH,WindSpeedGustMPH,Humidity,HourlyPrecipIn,Conditions,Clouds,dailyrainin,SoftwareType,DateUTC
2013-04-27 00:01:00,50.4,48.7,30.29,ENE,68,9.0,16.0,94,0.00,,,0.19,meteohub,2013-04-27 05:01:00,
2013-04-27 00:06:00,50.4,48.7,30.29,ENE,73,9.0,16.0,94,0.00,,,0.00,meteohub,2013-04-27 05:06:00,
2013-04-27 00:11:00,50.4,48.4,30.29,NE,54,7.0,14.0,93,0.00,,,0.00,meteohub,2013-04-27 05:11:00,
2013-04-27 00:16:00,50.4,48.7,30.29,NE,50,6.0,14.0,94,0.00,,,0.00,meteohub,2013-04-27 05:16:00,
2013-04-27 00:21:00,50.4,48.7,30.29,NE,44,11.0,11.0,94,0.00,,,0.00,meteohub,2013-04-27 05:21:00,
2013-04-27 00:26:00,50.2,48.7,30.30,ENE,64,9.0,10.0,95,0.00,,,0.00,meteohub,2013-04-27 05:26:00,
2013-04-27 00:31:00,50.0,48.6,30.30,NE,56,9.0,12.0,95,0.00,,,0.00,meteohub,2013-04-27 05:31:00,
2013-04-27 00:36:00,49.8,48.4,30.30,NE,55,6.0,12.0,95,0.00,,,0.00,meteohub,2013-04-27 05:36:00,
2013-04-27 00:41:00,49.8,48.7,30.30,ENE,72,6.0,12.0,96,0.00,,,0.00,meteohub,2013-04-27 05:41:00,
2013-04-27 00:46:00,49.8,48.7,30.30,NE,43,5.0,10.0,96,0.00,,,0.00,meteohub,2013-04-27 05:46:00,
2013-04-27 00:51:00,49.6,48.6,30.30,NE,50,6.0,10.0,96,0.00,,,0.00,meteohub,2013-04-27 05:51:00,
2013-04-27 00:56:00,49.6,48.6,30.30,NE,54,6.0,13.0,96,0.00,,,0.00,meteohub,2013-04-27 05:56:00,
2013-04-27 01:01:00,49.6,48.6,30.30,NE,47,6.0,13.0,96,0.00,,,0.00,meteohub,2013-04-27 06:01:00,
2013-04-27 01:06:00,49.6,48.6,30.30,ENE,68,7.0,13.0,96,0.00,,,0.00,meteohub,2013-04-27 06:06:00,
2013-04-27 01:11:00,49.6,48.6,30.30,ENE,57,7.0,13.0,96,0.00,,,0.00,meteohub,2013-04-27 06:11:00,
2013-04-27 01:16:00,49.6,48.6,30.30,ENE,70,4.0,12.0,96,0.00,,,0.00,meteohub,2013-04-27 06:16:00,
2013-04-27 01:22:00,49.6,48.6,30.30,ENE,61,7.0,11.0,96,0.00,,,0.00,meteohub,2013-04-27 06:22:00,
2013-04-27 01:27:00,49.6,48.6,30.30,ENE,70,6.0,10.0,96,0.00,,,0.00,meteohub,2013-04-27 06:27:00,
2013-04-27 01:32:00,49.5,48.4,30.30,NE,44,6.0,9.0,96,0.00,,,0.00,meteohub,2013-04-27 06:32:00,
2013-04-27 01:37:00,49.5,48.4,30.30,NE,44,9.0,9.0,96,0.00,,,0.00,meteohub,2013-04-27 06:37:00,
2013-04-27 01:42:00,49.5,48.4,30.30,NE,49,8.0,11.0,96,0.00,,,0.00,meteohub,2013-04-27 06:42:00,
2013-04-27 01:47:00,49.3,48.2,30.30,NE,54,6.0,11.0,96,0.00,,,0.00,meteohub,2013-04-27 06:47:00,
2013-04-27 01:52:00,49.3,48.2,30.30,NE,54,9.0,12.0,96,0.00,,,0.00,meteohub,2013-04-27 06:52:00,
2013-04-27 01:57:00,49.3,48.2,30.30,NE,54,8.0,12.0,96,0.00,,,0.00,meteohub,2013-04-27 06:57:00,
2013-04-27 02:02:00,49.1,48.0,30.30,NE,50,9.0,13.0,96,0.00,,,0.00,meteohub,2013-04-27 07:02:00,
2013-04-27 02:07:00,49.1,48.0,30.29,NE,50,10.0,13.0,96,0.00,,,0.00,meteohub,2013-04-27 07:07:00,
2013-04-27 02:12:00,48.9,47.8,30.29,NE,54,8.0,12.0,96,0.00,,,0.00,meteohub,2013-04-27 07:12:00,
2013-04-27 02:17:00,48.9,47.8,30.29,NE,46,8.0,13.0,96,0.00,,,0.00,meteohub,2013-04-27 07:17:00,
2013-04-27 02:22:00,48.9,47.8,30.28,NE,44,9.0,13.0,96,0.00,,,0.00,meteohub,2013-04-27 07:22:00,
2013-04-27 02:27:00,48.9,47.8,30.29,NE,44,6.0,13.0,96,0.00,,,0.00,meteohub,2013-04-27 07:27:00,
2013-04-27 02:32:00,48.7,47.7,30.28,NE,43,4.0,13.0,96,0.00,,,0.00,meteohub,2013-04-27 07:32:00,
2013-04-27 02:37:00,48.7,47.7,30.28,NE,54,11.0,13.0,96,0.00,,,0.00,meteohub,2013-04-27 07:37:00,
2013-04-27 02:42:00,48.7,47.7,30.28,NE,37,6.0,12.0,96,0.00,,,0.00,meteohub,2013-04-27 07:42:00,
2013-04-27 02:47:00,48.6,47.5,30.28,NE,40,6.0,12.0,96,0.00,,,0.00,meteohub,2013-04-27 07:47:00,
2013-04-27 02:52:00,48.7,47.7,30.27,NE,34,7.0,12.0,96,0.00,,,0.00,meteohub,2013-04-27 07:52:00,
2013-04-27 02:57:00,48.7,47.7,30.27,NNE,27,4.0,11.0,96,0.00,,,0.00,meteohub,2013-04-27 07:57:00,
2013-04-27 03:02:00,48.7,47.7,30.27,NE,41,5.0,11.0,96,0.00,,,0.00,meteohub,2013-04-27 08:02:00,
2013-04-27 03:07:00,48.7,47.7,30.27,NNE,31,5.0,9.0,96,0.00,,,0.00,meteohub,2013-04-27 08:07:00,
2013-04-27 03:12:00,48.7,47.7,30.27,NNW,328,3.0,9.0,96,0.00,,,0.00,meteohub,2013-04-27 08:12:00,
2013-04-27 03:17:00,48.6,47.5,30.27,NNE,19,3.0,9.0,96,0.00,,,0.00,meteohub,2013-04-27 08:17:00,
2013-04-27 03:22:00,48.7,47.7,30.27,North,8,7.0,9.0,96,0.00,,,0.00,meteohub,2013-04-27 08:22:00,
2013-04-27 03:27:00,48.7,47.7,30.27,NE,44,5.0,8.0,96,0.00,,,0.00,meteohub,2013-04-27 08:27:00,
2013-04-27 03:32:00,48.7,47.7,30.27,NNE,32,5.0,9.0,96,0.00,,,0.00,meteohub,2013-04-27 08:32:00,
2013-04-27 03:37:00,48.6,47.5,30.27,NNE,29,5.0,9.0,96,0.00,,,0.00,meteohub,2013-04-27 08:37:00,
2013-04-27 03:42:00,48.6,47.5,30.27,NE,50,7.0,9.0,96,0.00,,,0.00,meteohub,2013-04-27 08:42:00,
2013-04-27 03:47:00,48.6,47.5,30.27,NNE,16,4.0,9.0,96,0.00,,,0.00,meteohub,2013-04-27 08:47:00,
2013-04-27 03:52:00,48.6,47.5,30.26,NE,53,8.0,9.0,96,0.00,,,0.00,meteohub,2013-04-27 08:52:00,
2013-04-27 03:57:00,48.6,47.5,30.26,North,358,7.0,9.0,96,0.00,,,0.00,meteohub,2013-04-27 08:57:00,
2013-04-27 04:02:00,48.6,47.5,30.27,NNE,32,3.0,9.0,96,0.00,,,0.00,meteohub,2013-04-27 09:02:00,
2013-04-27 04:07:00,48.6,47.5,30.27,NNW,347,5.0,9.0,96,0.00,,,0.00,meteohub,2013-04-27 09:07:00,
2013-04-27 04:12:00,48.6,47.5,30.27,NNE,22,4.0,11.0,96,0.00,,,0.00,meteohub,2013-04-27 09:12:00,
2013-04-27 04:17:00,48.7,47.7,30.27,North,0,4.0,11.0,96,0.00,,,0.00,meteohub,2013-04-27 09:17:00,
2013-04-27 04:22:00,48.6,47.5,30.27,NNE,15,6.0,10.0,96,0.00,,,0.00,meteohub,2013-04-27 09:22:00,
2013-04-27 04:27:00,48.6,47.5,30.27,North,359,4.0,10.0,96,0.00,,,0.00,meteohub,2013-04-27 09:27:00,
2013-04-27 04:32:00,48.6,47.5,30.27,NE,37,3.0,8.0,96,0.00,,,0.00,meteohub,2013-04-27 09:32:00,
2013-04-27 04:37:00,48.6,47.5,30.27,NE,49,7.0,8.0,96,0.00,,,0.00,meteohub,2013-04-27 09:37:00,
2013-04-27 04:42:00,48.6,47.5,30.27,North,0,3.0,9.0,96,0.00,,,0.00,meteohub,2013-04-27 09:42:00,
2013-04-27 04:47:00,48.6,47.5,30.27,NE,34,3.0,9.0,96,0.00,,,0.00,meteohub,2013-04-27 09:47:00,
2013-04-27 04:52:00,48.6,47.5,30.26,NE,34,3.0,9.0,96,0.00,,,0.00,meteohub,2013-04-27 09:52:00,
2013-04-27 04:57:00,48.6,47.5,30.26,NE,52,8.0,10.0,96,0.00,,,0.00,meteohub,2013-04-27 09:57:00,
2013-04-27 05:02:00,48.7,47.7,30.26,NE,34,2.0,10.0,96,0.00,,,0.00,meteohub,2013-04-27 10:02:00,
2013-04-27 05:07:00,48.7,47.7,30.26,NE,40,2.0,10.0,96,0.00,,,0.00,meteohub,2013-04-27 10:07:00,
2013-04-27 05:12:00,48.7,47.7,30.26,NE,46,8.0,9.0,96,0.00,,,0.00,meteohub,2013-04-27 10:12:00,
2013-04-27 05:17:00,48.7,47.7,30.26,NNE,32,2.0,8.0,96,0.00,,,0.00,meteohub,2013-04-27 10:17:00,
2013-04-27 05:22:00,48.6,47.5,30.26,NNE,18,5.0,8.0,96,0.00,,,0.00,meteohub,2013-04-27 10:22:00,
2013-04-27 05:27:00,48.6,47.5,30.26,NW,311,2.0,8.0,96,0.00,,,0.00,meteohub,2013-04-27 10:27:00,
2013-04-27 05:32:00,48.6,47.5,30.26,NNE,23,6.0,8.0,96,0.00,,,0.00,meteohub,2013-04-27 10:32:00,
2013-04-27 05:37:00,48.6,47.5,30.26,NNW,328,5.0,8.0,96,0.01,,,0.01,meteohub,2013-04-27 10:37:00,
2013-04-27 05:42:00,48.6,47.5,30.27,NNW,338,5.0,8.0,96,0.01,,,0.01,meteohub,2013-04-27 10:42:00,
2013-04-27 05:47:00,48.6,47.5,30.27,NNW,328,4.0,8.0,96,0.01,,,0.01,meteohub,2013-04-27 10:47:00,
2013-04-27 05:52:00,48.6,47.5,30.27,NNW,343,4.0,9.0,96,0.01,,,0.01,meteohub,2013-04-27 10:52:00,
2013-04-27 05:57:00,48.6,47.5,30.27,NNW,328,4.0,9.0,96,0.01,,,0.01,meteohub,2013-04-27 10:57:00,
2013-04-27 06:02:00,48.6,47.5,30.27,NNW,335,7.0,9.0,96,0.01,,,0.01,meteohub,2013-04-27 11:02:00,
2013-04-27 06:07:00,48.6,47.5,30.27,NNW,345,9.0,9.0,96,0.01,,,0.01,meteohub,2013-04-27 11:07:00,
2013-04-27 06:12:00,48.6,47.5,30.27,NNW,343,6.0,14.0,96,0.01,,,0.01,meteohub,2013-04-27 11:12:00,
2013-04-27 06:17:00,48.6,47.1,30.27,NNW,344,8.0,14.0,95,0.01,,,0.01,meteohub,2013-04-27 11:17:00,
2013-04-27 06:22:00,48.6,47.1,30.27,NNW,340,8.0,14.0,95,0.01,,,0.01,meteohub,2013-04-27 11:22:00,
2013-04-27 06:27:00,48.6,47.1,30.27,NNW,344,6.0,14.0,95,0.01,,,0.01,meteohub,2013-04-27 11:27:00,
2013-04-27 06:32:00,48.6,47.1,30.27,North,11,6.0,13.0,95,0.00,,,0.01,meteohub,2013-04-27 11:32:00,
2013-04-27 06:37:00,48.6,47.5,30.27,NNE,32,6.0,13.0,96,0.00,,,0.01,meteohub,2013-04-27 11:37:00,
2013-04-27 06:42:00,48.6,47.5,30.27,NNW,344,11.0,13.0,96,0.00,,,0.01,meteohub,2013-04-27 11:42:00,
2013-04-27 06:47:00,48.4,47.3,30.27,NW,317,4.0,13.0,96,0.00,,,0.01,meteohub,2013-04-27 11:47:00,
2013-04-27 06:52:00,48.4,47.3,30.27,North,8,7.0,13.0,96,0.00,,,0.01,meteohub,2013-04-27 11:52:00,
2013-04-27 06:57:00,48.4,47.3,30.27,NNW,332,6.0,12.0,96,0.00,,,0.01,meteohub,2013-04-27 11:57:00,
2013-04-27 07:02:00,48.4,47.3,30.27,NNW,345,7.0,12.0,96,0.00,,,0.01,meteohub,2013-04-27 12:02:00,
2013-04-27 07:07:00,48.4,46.9,30.28,NNW,328,9.0,13.0,95,0.00,,,0.01,meteohub,2013-04-27 12:07:00,
2013-04-27 07:12:00,48.4,46.9,30.28,North,358,8.0,13.0,95,0.00,,,0.01,meteohub,2013-04-27 12:12:00,
2013-04-27 07:17:00,48.4,46.9,30.28,NNE,15,9.0,12.0,95,0.00,,,0.01,meteohub,2013-04-27 12:17:00,
2013-04-27 07:22:00,48.4,47.3,30.28,North,1,6.0,12.0,96,0.00,,,0.01,meteohub,2013-04-27 12:22:00,
2013-04-27 07:27:00,48.4,47.3,30.28,North,1,9.0,12.0,96,0.00,,,0.01,meteohub,2013-04-27 12:27:00,
2013-04-27 07:32:00,48.4,47.3,30.28,NNE,20,10.0,11.0,96,0.00,,,0.01,meteohub,2013-04-27 12:32:00,
2013-04-27 07:37:00,48.4,47.3,30.28,North,11,8.0,12.0,96,0.00,,,0.01,meteohub,2013-04-27 12:37:00,
2013-04-27 07:42:00,48.4,47.3,30.28,NE,34,7.0,12.0,96,0.00,,,0.01,meteohub,2013-04-27 12:42:00,
2013-04-27 07:47:00,48.6,47.1,30.28,North,354,7.0,12.0,95,0.00,,,0.01,meteohub,2013-04-27 12:47:00,
2013-04-27 07:52:00,48.6,47.1,30.28,NNE,18,8.0,12.0,95,0.00,,,0.01,meteohub,2013-04-27 12:52:00,
2013-04-27 07:57:00,48.6,47.1,30.29,NW,316,6.0,12.0,95,0.00,,,0.01,meteohub,2013-04-27 12:57:00,
2013-04-27 08:01:00,48.7,47.1,30.29,North,8,11.0,12.0,94,0.00,,,0.01,meteohub,2013-04-27 13:01:00,
2013-04-27 08:07:00,48.7,47.1,30.29,NNW,343,9.0,14.0,94,0.00,,,0.01,meteohub,2013-04-27 13:07:00,
2013-04-27 08:12:00,48.9,47.3,30.29,North,8,8.0,15.0,94,0.00,,,0.01,meteohub,2013-04-27 13:12:00,
2013-04-27 08:17:00,48.9,47.3,30.29,NNW,340,6.0,15.0,94,0.00,,,0.01,meteohub,2013-04-27 13:17:00,
2013-04-27 08:22:00,48.9,47.3,30.29,North,359,12.0,15.0,94,0.00,,,0.01,meteohub,2013-04-27 13:22:00,
2013-04-27 08:27:00,49.1,47.1,30.29,North,350,7.0,17.0,93,0.00,,,0.01,meteohub,2013-04-27 13:27:00,
2013-04-27 08:32:00,49.1,47.1,30.29,NE,40,10.0,17.0,93,0.00,,,0.01,meteohub,2013-04-27 13:32:00,
2013-04-27 08:37:00,49.3,47.3,30.29,North,350,10.0,17.0,93,0.00,,,0.01,meteohub,2013-04-27 13:37:00,
2013-04-27 08:42:00,49.3,47.3,30.29,North,4,11.0,17.0,93,0.00,,,0.01,meteohub,2013-04-27 13:42:00,
2013-04-27 08:48:00,49.3,47.3,30.30,NW,323,4.0,17.0,93,0.00,,,0.01,meteohub,2013-04-27 13:48:00,
2013-04-27 08:53:00,49.3,47.3,30.29,NNE,15,9.0,18.0,93,0.00,,,0.01,meteohub,2013-04-27 13:53:00,
2013-04-27 08:58:00,49.3,47.3,30.30,North,6,10.0,18.0,93,0.00,,,0.01,meteohub,2013-04-27 13:58:00,
2013-04-27 09:03:00,49.5,47.5,30.30,NNW,345,9.0,17.0,93,0.00,,,0.01,meteohub,2013-04-27 14:03:00,
2013-04-27 09:08:00,49.5,47.5,30.30,NW,319,13.0,15.0,93,0.00,,,0.01,meteohub,2013-04-27 14:08:00,
2013-04-27 09:13:00,49.5,47.3,30.30,NW,326,11.0,15.0,92,0.00,,,0.01,meteohub,2013-04-27 14:13:00,
2013-04-27 09:18:00,49.6,47.5,30.30,NNE,12,10.0,15.0,92,0.00,,,0.01,meteohub,2013-04-27 14:18:00,
2013-04-27 09:23:00,49.6,47.5,30.30,NW,326,6.0,15.0,92,0.00,,,0.01,meteohub,2013-04-27 14:23:00,
2013-04-27 09:28:00,49.6,47.5,30.30,NNW,329,11.0,15.0,92,0.00,,,0.01,meteohub,2013-04-27 14:28:00,
2013-04-27 09:33:00,49.6,47.1,30.30,NNW,345,11.0,15.0,91,0.00,,,0.01,meteohub,2013-04-27 14:33:00,
2013-04-27 09:38:00,49.8,47.3,30.30,NNW,332,7.0,15.0,91,0.00,,,0.01,meteohub,2013-04-27 14:38:00,
2013-04-27 09:43:00,49.8,47.3,30.30,North,1,6.0,15.0,91,0.00,,,0.01,meteohub,2013-04-27 14:43:00,
2013-04-27 09:48:00,50.2,47.7,30.30,North,8,6.0,14.0,91,0.00,,,0.01,meteohub,2013-04-27 14:48:00,
2013-04-27 09:53:00,50.2,47.7,30.30,NW,314,7.0,12.0,91,0.00,,,0.01,meteohub,2013-04-27 14:53:00,
2013-04-27 09:58:00,50.4,47.8,30.30,NE,49,5.0,12.0,91,0.00,,,0.01,meteohub,2013-04-27 14:58:00,
2013-04-27 10:03:00,50.5,48.0,30.30,NNW,344,6.0,12.0,91,0.00,,,0.01,meteohub,2013-04-27 15:03:00,
2013-04-27 10:08:00,50.5,48.0,30.30,NNW,340,8.0,12.0,91,0.00,,,0.01,meteohub,2013-04-27 15:08:00,
2013-04-27 10:13:00,50.7,48.2,30.30,NNW,348,9.0,11.0,91,0.00,,,0.01,meteohub,2013-04-27 15:13:00,
2013-04-27 10:18:00,50.7,47.8,30.30,NW,316,12.0,12.0,90,0.00,,,0.01,meteohub,2013-04-27 15:18:00,
2013-04-27 10:23:00,50.7,47.8,30.30,NW,322,5.0,12.0,90,0.00,,,0.01,meteohub,2013-04-27 15:23:00,
2013-04-27 10:28:00,50.7,48.2,30.30,NW,319,5.0,12.0,91,0.00,,,0.01,meteohub,2013-04-27 15:28:00,
2013-04-27 10:33:00,50.7,47.8,30.30,WNW,298,12.0,12.0,90,0.00,,,0.01,meteohub,2013-04-27 15:33:00,
2013-04-27 10:38:00,50.5,47.7,30.30,NW,309,10.0,13.0,90,0.00,,,0.01,meteohub,2013-04-27 15:38:00,
2013-04-27 10:44:00,50.7,48.2,30.30,North,8,7.0,13.0,91,0.00,,,0.01,meteohub,2013-04-27 15:44:00,
2013-04-27 10:49:00,50.7,48.2,30.31,NNW,328,9.0,13.0,91,0.00,,,0.01,meteohub,2013-04-27 15:49:00,
2013-04-27 10:54:00,50.7,48.2,30.31,NNW,344,7.0,13.0,91,0.00,,,0.01,meteohub,2013-04-27 15:54:00,
2013-04-27 10:59:00,50.7,48.2,30.31,NW,319,5.0,13.0,91,0.00,,,0.01,meteohub,2013-04-27 15:59:00,
2013-04-27 11:04:00,50.9,48.4,30.31,NW,309,6.0,17.0,91,0.00,,,0.01,meteohub,2013-04-27 16:04:00,
2013-04-27 11:09:00,51.1,48.2,30.31,NE,34,7.0,17.0,90,0.00,,,0.01,meteohub,2013-04-27 16:09:00,
2013-04-27 11:14:00,51.1,48.2,30.31,North,354,11.0,17.0,90,0.00,,,0.01,meteohub,2013-04-27 16:14:00,
2013-04-27 11:19:00,51.3,48.4,30.32,NNW,347,6.0,13.0,90,0.00,,,0.01,meteohub,2013-04-27 16:19:00,
2013-04-27 11:24:00,51.3,48.4,30.31,NW,323,5.0,13.0,90,0.00,,,0.01,meteohub,2013-04-27 16:24:00,
2013-04-27 11:29:00,51.3,48.4,30.32,NNW,335,5.0,13.0,90,0.00,,,0.01,meteohub,2013-04-27 16:29:00,
2013-04-27 11:34:00,51.4,48.6,30.32,NNW,338,6.0,11.0,90,0.00,,,0.01,meteohub,2013-04-27 16:34:00,
2013-04-27 11:39:00,51.4,48.6,30.32,NNW,329,8.0,11.0,90,0.00,,,0.01,meteohub,2013-04-27 16:39:00,
2013-04-27 11:44:00,51.4,48.9,30.31,NE,37,5.0,12.0,91,0.00,,,0.01,meteohub,2013-04-27 16:44:00,
2013-04-27 11:49:00,51.4,48.9,30.32,NNW,343,5.0,12.0,91,0.00,,,0.01,meteohub,2013-04-27 16:49:00,
2013-04-27 11:54:00,51.6,49.1,30.31,NNW,337,6.0,12.0,91,0.00,,,0.01,meteohub,2013-04-27 16:54:00,
2013-04-27 11:59:00,51.6,48.7,30.31,North,0,7.0,10.0,90,0.00,,,0.01,meteohub,2013-04-27 16:59:00,
2013-04-27 12:04:00,51.6,48.7,30.31,WNW,296,6.0,12.0,90,0.00,,,0.01,meteohub,2013-04-27 17:04:00,
2013-04-27 12:09:00,51.8,48.9,30.31,NE,37,3.0,12.0,90,0.00,,,0.01,meteohub,2013-04-27 17:09:00,
2013-04-27 12:14:00,52.0,49.1,30.31,NW,323,5.0,12.0,90,0.00,,,0.01,meteohub,2013-04-27 17:14:00,
2013-04-27 12:19:00,52.2,49.3,30.31,NE,40,4.0,11.0,90,0.00,,,0.01,meteohub,2013-04-27 17:19:00,
2013-04-27 12:24:00,52.3,49.3,30.31,NNE,29,7.0,11.0,89,0.00,,,0.01,meteohub,2013-04-27 17:24:00,
2013-04-27 12:29:00,52.5,49.5,30.31,North,358,6.0,11.0,89,0.00,,,0.01,meteohub,2013-04-27 17:29:00,
2013-04-27 12:34:00,52.5,49.5,30.31,NE,41,5.0,12.0,89,0.00,,,0.01,meteohub,2013-04-27 17:34:00,
2013-04-27 12:39:00,52.7,49.3,30.30,NNW,337,7.0,12.0,88,0.00,,,0.01,meteohub,2013-04-27 17:39:00,
2013-04-27 12:44:00,52.9,49.5,30.30,NNE,15,6.0,12.0,88,0.00,,,0.01,meteohub,2013-04-27 17:44:00,
2013-04-27 12:49:00,53.2,49.8,30.30,WNW,297,6.0,12.0,88,0.00,,,0.01,meteohub,2013-04-27 17:49:00,
2013-04-27 12:54:00,53.1,49.6,30.30,NW,311,5.0,10.0,88,0.00,,,0.01,meteohub,2013-04-27 17:54:00,
2013-04-27 12:59:00,53.1,49.6,30.30,NW,309,6.0,13.0,88,0.00,,,0.01,meteohub,2013-04-27 17:59:00,
2013-04-27 13:04:00,53.1,49.8,30.30,WNW,295,6.0,13.0,89,0.00,,,0.01,meteohub,2013-04-27 18:04:00,
2013-04-27 13:09:00,52.9,49.5,30.30,North,352,6.0,13.0,88,0.00,,,0.01,meteohub,2013-04-27 18:09:00,
2013-04-27 13:14:00,52.9,49.6,30.30,NW,307,7.0,13.0,89,0.00,,,0.01,meteohub,2013-04-27 18:14:00,
2013-04-27 13:19:00,53.1,49.8,30.30,NW,307,6.0,12.0,89,0.00,,,0.01,meteohub,2013-04-27 18:19:00,
2013-04-27 13:24:00,53.1,49.8,30.30,NW,314,5.0,12.0,89,0.00,,,0.01,meteohub,2013-04-27 18:24:00,
2013-04-27 13:29:00,53.1,49.8,30.30,NW,321,5.0,12.0,89,0.00,,,0.01,meteohub,2013-04-27 18:29:00,
2013-04-27 13:34:00,53.1,49.8,30.29,North,6,5.0,12.0,89,0.00,,,0.01,meteohub,2013-04-27 18:34:00,
2013-04-27 13:39:00,53.2,50.0,30.29,NNE,20,8.0,12.0,89,0.00,,,0.01,meteohub,2013-04-27 18:39:00,
2013-04-27 13:44:00,53.6,50.2,30.29,NNW,347,5.0,12.0,88,0.00,,,0.01,meteohub,2013-04-27 18:44:00,
2013-04-27 13:49:00,53.8,50.4,30.29,North,350,6.0,12.0,88,0.00,,,0.01,meteohub,2013-04-27 18:49:00,
2013-04-27 13:54:00,54.5,51.3,30.28,NNW,347,7.0,12.0,89,0.00,,,0.01,meteohub,2013-04-27 18:54:00,
2013-04-27 13:59:00,55.2,51.1,30.28,NNE,23,4.0,12.0,86,0.00,,,0.01,meteohub,2013-04-27 18:59:00,
2013-04-27 14:04:00,55.8,51.1,30.28,NNW,332,6.0,12.0,84,0.00,,,0.01,meteohub,2013-04-27 19:04:00,
2013-04-27 14:09:00,56.3,51.4,30.28,NW,316,8.0,12.0,84,0.00,,,0.01,meteohub,2013-04-27 19:09:00,
2013-04-27 14:14:00,56.3,51.3,30.27,North,6,11.0,12.0,83,0.00,,,0.01,meteohub,2013-04-27 19:14:00,
2013-04-27 14:19:00,56.1,51.4,30.27,NNW,335,8.0,12.0,84,0.00,,,0.01,meteohub,2013-04-27 19:19:00,
2013-04-27 14:24:00,56.3,51.3,30.27,NW,316,5.0,12.0,83,0.00,,,0.01,meteohub,2013-04-27 19:24:00,
2013-04-27 14:29:00,56.3,51.3,30.27,NNE,19,5.0,12.0,83,0.00,,,0.01,meteohub,2013-04-27 19:29:00,
2013-04-27 14:34:00,56.3,51.3,30.27,North,5,3.0,11.0,83,0.00,,,0.01,meteohub,2013-04-27 19:34:00,
2013-04-27 14:39:00,56.3,51.3,30.27,NE,50,7.0,9.0,83,0.00,,,0.01,meteohub,2013-04-27 19:39:00,
2013-04-27 14:44:00,56.5,51.6,30.27,NNE,20,7.0,11.0,84,0.00,,,0.01,meteohub,2013-04-27 19:44:00,
2013-04-27 14:49:00,56.5,51.6,30.26,NNE,27,4.0,11.0,84,0.00,,,0.01,meteohub,2013-04-27 19:49:00,
2013-04-27 14:54:00,56.8,51.4,30.26,North,11,4.0,11.0,82,0.00,,,0.01,meteohub,2013-04-27 19:54:00,
2013-04-27 14:59:00,57.4,52.3,30.26,NE,40,6.0,12.0,83,0.00,,,0.01,meteohub,2013-04-27 19:59:00,
2013-04-27 15:04:00,57.7,52.3,30.25,NNE,32,3.0,12.0,82,0.00,,,0.01,meteohub,2013-04-27 20:04:00,
2013-04-27 15:09:00,58.3,51.8,30.25,NW,309,6.0,12.0,79,0.00,,,0.01,meteohub,2013-04-27 20:09:00,
2013-04-27 15:14:00,58.6,52.2,30.25,NNE,12,8.0,13.0,79,0.00,,,0.01,meteohub,2013-04-27 20:14:00,
2013-04-27 15:19:00,58.6,51.8,30.25,NE,55,6.0,13.0,78,0.00,,,0.01,meteohub,2013-04-27 20:19:00,
2013-04-27 15:24:00,58.8,51.6,30.25,WNW,298,8.0,13.0,77,0.00,,,0.01,meteohub,2013-04-27 20:24:00,
2013-04-27 15:29:00,59.2,52.0,30.24,NW,319,4.0,14.0,77,0.00,,,0.01,meteohub,2013-04-27 20:29:00,
2013-04-27 15:34:00,59.7,52.2,30.24,NNE,16,8.0,14.0,76,0.00,,,0.01,meteohub,2013-04-27 20:34:00,
2013-04-27 15:39:00,60.1,52.5,30.24,NNE,29,5.0,14.0,76,0.00,,,0.01,meteohub,2013-04-27 20:39:00,
2013-04-27 15:44:00,60.1,51.8,30.24,NE,41,9.0,13.0,74,0.00,,,0.01,meteohub,2013-04-27 20:44:00,
2013-04-27 15:49:00,59.9,52.0,30.24,NW,316,3.0,13.0,75,0.00,,,0.01,meteohub,2013-04-27 20:49:00,
2013-04-27 15:54:00,60.4,51.8,30.23,NNW,340,7.0,11.0,73,0.00,,,0.01,meteohub,2013-04-27 20:54:00,
2013-04-27 16:00:00,60.3,51.6,30.23,NW,311,2.0,11.0,73,0.00,,,0.01,meteohub,2013-04-27 21:00:00,
2013-04-27 16:04:00,61.0,51.4,30.23,North,350,3.0,9.0,71,0.00,,,0.01,meteohub,2013-04-27 21:04:00,
2013-04-27 16:10:00,61.2,51.6,30.23,WNW,301,2.0,9.0,71,0.00,,,0.01,meteohub,2013-04-27 21:10:00,
2013-04-27 16:15:00,61.5,52.0,30.22,ENE,61,7.0,8.0,71,0.00,,,0.01,meteohub,2013-04-27 21:15:00,
2013-04-27 16:20:00,61.5,52.0,30.22,NNW,340,6.0,6.0,71,0.00,,,0.01,meteohub,2013-04-27 21:20:00,
2013-04-27 16:25:00,61.5,51.6,30.22,WNW,301,5.0,11.0,70,0.00,,,0.01,meteohub,2013-04-27 21:25:00,
2013-04-27 16:30:00,61.5,51.6,30.22,NW,321,2.0,11.0,70,0.00,,,0.01,meteohub,2013-04-27 21:30:00,
2013-04-27 16:35:00,62.2,52.0,30.22,NNE,13,5.0,11.0,69,0.00,,,0.01,meteohub,2013-04-27 21:35:00,
2013-04-27 16:40:00,62.4,51.3,30.21,WNW,297,2.0,8.0,67,0.00,,,0.01,meteohub,2013-04-27 21:40:00,
2013-04-27 16:45:00,62.4,51.8,30.21,WNW,295,6.0,8.0,68,0.00,,,0.01,meteohub,2013-04-27 21:45:00,
2013-04-27 16:50:00,62.4,51.8,30.21,WNW,291,7.0,8.0,68,0.00,,,0.01,meteohub,2013-04-27 21:50:00,
2013-04-27 16:55:00,62.6,52.0,30.21,WNW,285,2.0,12.0,68,0.00,,,0.01,meteohub,2013-04-27 21:55:00,
2013-04-27 17:00:00,63.1,52.9,30.21,NW,305,3.0,12.0,69,0.00,,,0.01,meteohub,2013-04-27 22:00:00,
2013-04-27 17:05:00,63.0,51.8,30.20,NE,50,8.0,12.0,67,0.00,,,0.01,meteohub,2013-04-27 22:05:00,
2013-04-27 17:10:00,63.1,51.6,30.20,ENE,62,5.0,11.0,66,0.00,,,0.01,meteohub,2013-04-27 22:10:00,
2013-04-27 17:15:00,63.3,51.8,30.20,NW,306,5.0,11.0,66,0.00,,,0.01,meteohub,2013-04-27 22:15:00,
2013-04-27 17:20:00,63.7,51.6,30.20,NW,309,5.0,11.0,65,0.00,,,0.01,meteohub,2013-04-27 22:20:00,
2013-04-27 17:25:00,63.5,51.4,30.20,WNW,297,3.0,8.0,65,0.00,,,0.01,meteohub,2013-04-27 22:25:00,
2013-04-27 17:30:00,63.7,51.6,30.19,WNW,285,4.0,8.0,65,0.00,,,0.01,meteohub,2013-04-27 22:30:00,
2013-04-27 17:35:00,63.9,51.4,30.19,NW,322,3.0,8.0,64,0.00,,,0.01,meteohub,2013-04-27 22:35:00,
2013-04-27 17:40:00,64.0,51.6,30.19,NNW,332,2.0,8.0,64,0.00,,,0.01,meteohub,2013-04-27 22:40:00,
2013-04-27 17:45:00,64.0,51.6,30.19,NW,322,1.0,8.0,64,0.00,,,0.01,meteohub,2013-04-27 22:45:00,
2013-04-27 17:50:00,64.2,51.4,30.19,NW,304,3.0,8.0,63,0.00,,,0.01,meteohub,2013-04-27 22:50:00,
2013-04-27 17:55:00,64.2,51.4,30.19,NW,314,2.0,7.0,63,0.00,,,0.01,meteohub,2013-04-27 22:55:00,
2013-04-27 18:00:00,64.6,51.6,30.19,NW,307,5.0,6.0,63,0.00,,,0.01,meteohub,2013-04-27 23:00:00,
2013-04-27 18:05:00,64.2,51.4,30.19,NW,314,4.0,6.0,63,0.00,,,0.01,meteohub,2013-04-27 23:05:00,
2013-04-27 18:10:00,64.2,51.4,30.19,West,277,7.0,9.0,63,0.00,,,0.01,meteohub,2013-04-27 23:10:00,
2013-04-27 18:15:00,64.2,51.8,30.18,West,266,3.0,9.0,64,0.00,,,0.01,meteohub,2013-04-27 23:15:00,
2013-04-27 18:20:00,64.6,51.6,30.18,West,277,5.0,9.0,63,0.00,,,0.01,meteohub,2013-04-27 23:20:00,
2013-04-27 18:25:00,64.6,51.6,30.18,West,280,3.0,7.0,63,0.00,,,0.01,meteohub,2013-04-27 23:25:00,
2013-04-27 18:30:00,64.8,51.8,30.18,WNW,298,4.0,7.0,63,0.00,,,0.01,meteohub,2013-04-27 23:30:00,
2013-04-27 18:35:00,64.9,51.6,30.18,WNW,293,0.0,7.0,62,0.00,,,0.01,meteohub,2013-04-27 23:35:00,
2013-04-27 18:40:00,66.4,52.5,30.18,WNW,290,0.0,7.0,61,0.00,,,0.01,meteohub,2013-04-27 23:40:00,
2013-04-27 18:45:00,67.6,52.3,30.18,NNW,343,2.0,5.0,58,0.00,,,0.01,meteohub,2013-04-27 23:45:00,
2013-04-27 18:50:00,66.0,51.8,30.18,NNW,347,2.0,3.0,60,0.00,,,0.01,meteohub,2013-04-27 23:50:00,
2013-04-27 18:55:00,65.5,51.6,30.18,NW,319,2.0,4.0,61,0.00,,,0.01,meteohub,2013-04-27 23:55:00,
2013-04-27 19:00:00,65.1,51.3,30.18,WNW,300,2.0,4.0,61,0.00,,,0.01,meteohub,2013-04-28 00:00:00,
2013-04-27 19:05:00,65.3,51.4,30.17,West,260,1.0,5.0,61,0.00,,,0.01,meteohub,2013-04-28 00:05:00,
2013-04-27 19:10:00,65.7,51.4,30.17,West,260,0.0,5.0,60,0.00,,,0.01,meteohub,2013-04-28 00:10:00,
2013-04-27 19:15:00,65.8,51.6,30.17,West,262,1.0,5.0,60,0.00,,,0.01,meteohub,2013-04-28 00:15:00,
2013-04-27 19:20:00,65.1,51.3,30.17,WSW,248,6.0,6.0,61,0.00,,,0.01,meteohub,2013-04-28 00:20:00,
2013-04-27 19:25:00,64.4,51.1,30.17,WSW,255,4.0,4.0,62,0.00,,,0.01,meteohub,2013-04-28 00:25:00,
2013-04-27 19:30:00,63.9,51.1,30.17,WSW,255,2.0,7.0,63,0.00,,,0.01,meteohub,2013-04-28 00:30:00,
2013-04-27 19:36:00,63.7,50.9,30.17,WSW,250,3.0,7.0,63,0.00,,,0.01,meteohub,2013-04-28 00:36:00,
2013-04-27 19:41:00,63.9,51.1,30.17,WSW,243,2.0,7.0,63,0.00,,,0.01,meteohub,2013-04-28 00:41:00,
2013-04-27 19:46:00,63.9,51.4,30.17,SW,225,1.0,4.0,64,0.00,,,0.01,meteohub,2013-04-28 00:46:00,
2013-04-27 19:51:00,64.0,51.3,30.17,SE,146,1.0,3.0,63,0.00,,,0.01,meteohub,2013-04-28 00:51:00,
2013-04-27 19:56:00,63.5,52.3,30.17,ESE,117,6.0,6.0,67,0.00,,,0.01,meteohub,2013-04-28 00:56:00,
2013-04-27 20:01:00,62.6,52.7,30.17,ESE,108,6.0,8.0,70,0.00,,,0.01,meteohub,2013-04-28 01:01:00,
2013-04-27 20:06:00,62.1,52.5,30.17,SE,124,2.0,8.0,71,0.00,,,0.01,meteohub,2013-04-28 01:06:00,
2013-04-27 20:11:00,61.9,52.7,30.17,ESE,119,6.0,8.0,72,0.00,,,0.01,meteohub,2013-04-28 01:11:00,
2013-04-27 20:16:00,61.3,52.7,30.17,SE,129,6.0,8.0,73,0.00,,,0.01,meteohub,2013-04-28 01:16:00,
2013-04-27 20:21:00,61.2,52.9,30.17,SE,131,5.0,9.0,74,0.00,,,0.01,meteohub,2013-04-28 01:21:00,
2013-04-27 20:26:00,60.6,52.3,30.17,SE,137,3.0,9.0,74,0.00,,,0.01,meteohub,2013-04-28 01:26:00,
2013-04-27 20:31:00,60.4,52.5,30.17,SE,131,3.0,9.0,75,0.00,,,0.01,meteohub,2013-04-28 01:31:00,
2013-04-27 20:36:00,60.1,52.5,30.17,SE,135,2.0,8.0,76,0.00,,,0.01,meteohub,2013-04-28 01:36:00,
2013-04-27 20:41:00,59.7,52.5,30.17,SE,140,2.0,8.0,77,0.00,,,0.01,meteohub,2013-04-28 01:41:00,
2013-04-27 20:46:00,59.5,52.7,30.17,ESE,121,5.0,6.0,78,0.00,,,0.01,meteohub,2013-04-28 01:46:00,
2013-04-27 20:51:00,59.2,52.3,30.17,ESE,119,6.0,7.0,78,0.00,,,0.01,meteohub,2013-04-28 01:51:00,
2013-04-27 20:56:00,59.0,52.5,30.17,SE,127,5.0,7.0,79,0.00,,,0.01,meteohub,2013-04-28 01:56:00,
2013-04-27 21:01:00,58.8,52.3,30.17,SE,127,4.0,8.0,79,0.00,,,0.01,meteohub,2013-04-28 02:01:00,
2013-04-27 21:06:00,58.6,52.5,30.17,ESE,122,3.0,8.0,80,0.00,,,0.01,meteohub,2013-04-28 02:06:00,
2013-04-27 21:11:00,58.5,52.7,30.17,ESE,115,5.0,6.0,81,0.00,,,0.01,meteohub,2013-04-28 02:11:00,
2013-04-27 21:16:00,58.3,52.5,30.17,ESE,121,4.0,7.0,81,0.00,,,0.01,meteohub,2013-04-28 02:16:00,
2013-04-27 21:21:00,57.9,52.5,30.17,East,83,4.0,7.0,82,0.00,,,0.01,meteohub,2013-04-28 02:21:00,
2013-04-27 21:26:00,57.6,52.5,30.17,East,94,7.0,7.0,83,0.00,,,0.01,meteohub,2013-04-28 02:26:00,
2013-04-27 21:31:00,57.0,52.0,30.17,East,97,7.0,10.0,83,0.00,,,0.01,meteohub,2013-04-28 02:31:00,
2013-04-27 21:36:00,56.8,52.0,30.17,SE,129,6.0,12.0,84,0.00,,,0.01,meteohub,2013-04-28 02:36:00,
2013-04-27 21:41:00,56.7,51.8,30.17,ESE,103,7.0,12.0,84,0.00,,,0.01,meteohub,2013-04-28 02:41:00,
2013-04-27 21:46:00,56.5,51.6,30.17,ESE,109,9.0,12.0,84,0.00,,,0.01,meteohub,2013-04-28 02:46:00,
2013-04-27 21:51:00,56.1,51.6,30.17,ESE,112,8.0,11.0,85,0.00,,,0.01,meteohub,2013-04-28 02:51:00,
2013-04-27 21:56:00,56.1,51.6,30.17,ESE,122,7.0,11.0,85,0.00,,,0.01,meteohub,2013-04-28 02:56:00,
2013-04-27 22:01:00,55.9,51.4,30.17,ESE,122,4.0,12.0,85,0.00,,,0.01,meteohub,2013-04-28 03:01:00,
2013-04-27 22:06:00,55.8,51.3,30.17,ESE,118,6.0,13.0,85,0.00,,,0.01,meteohub,2013-04-28 03:06:00,
2013-04-27 22:11:00,55.6,51.4,30.17,ESE,112,5.0,13.0,86,0.00,,,0.01,meteohub,2013-04-28 03:11:00,
2013-04-27 22:16:00,55.4,51.3,30.18,ESE,109,7.0,10.0,86,0.00,,,0.01,meteohub,2013-04-28 03:16:00,
2013-04-27 22:22:00,55.2,51.1,30.18,ESE,122,7.0,10.0,86,0.00,,,0.01,meteohub,2013-04-28 03:22:00,
2013-04-27 22:27:00,55.2,51.1,30.18,ESE,117,4.0,10.0,86,0.00,,,0.01,meteohub,2013-04-28 03:27:00,
2013-04-27 22:32:00,55.0,51.3,30.18,ESE,121,6.0,10.0,87,0.00,,,0.01,meteohub,2013-04-28 03:32:00,
2013-04-27 22:36:00,54.9,51.1,30.18,ESE,122,4.0,9.0,87,0.00,,,0.01,meteohub,2013-04-28 03:36:00,
2013-04-27 22:42:00,54.7,50.9,30.18,SE,127,4.0,8.0,87,0.00,,,0.01,meteohub,2013-04-28 03:42:00,
2013-04-27 22:47:00,54.7,50.9,30.18,ESE,105,4.0,8.0,87,0.00,,,0.01,meteohub,2013-04-28 03:47:00,
2013-04-27 22:52:00,54.5,51.1,30.17,ESE,108,5.0,7.0,88,0.00,,,0.01,meteohub,2013-04-28 03:52:00,
2013-04-27 22:57:00,54.3,50.9,30.18,ESE,115,5.0,7.0,88,0.00,,,0.01,meteohub,2013-04-28 03:57:00,
2013-04-27 23:01:00,54.1,50.7,30.18,ESE,102,5.0,7.0,88,0.00,,,0.01,meteohub,2013-04-28 04:01:00,
2013-04-27 23:02:00,54.1,50.7,30.18,SE,124,4.0,7.0,88,0.00,,,0.01,meteohub,2013-04-28 04:02:00,
2013-04-27 23:07:00,54.1,50.7,30.18,ESE,105,4.0,7.0,88,0.00,,,0.01,meteohub,2013-04-28 04:07:00,
2013-04-27 23:12:00,54.0,50.5,30.18,East,91,3.0,7.0,88,0.00,,,0.01,meteohub,2013-04-28 04:12:00,
2013-04-27 23:17:00,53.8,50.5,30.18,ESE,116,4.0,7.0,89,0.00,,,0.01,meteohub,2013-04-28 04:17:00,
2013-04-27 23:22:00,53.6,50.4,30.17,SE,126,3.0,7.0,89,0.00,,,0.01,meteohub,2013-04-28 04:22:00,
2013-04-27 23:27:00,53.4,50.2,30.17,ESE,118,4.0,6.0,89,0.00,,,0.01,meteohub,2013-04-28 04:27:00,
2013-04-27 23:32:00,53.4,50.2,30.17,ESE,117,4.0,7.0,89,0.00,,,0.01,meteohub,2013-04-28 04:32:00,
2013-04-27 23:37:00,53.2,50.0,30.17,ESE,117,5.0,7.0,89,0.00,,,0.01,meteohub,2013-04-28 04:37:00,
2013-04-27 23:42:00,53.2,50.4,30.17,SE,127,3.0,7.0,90,0.00,,,0.01,meteohub,2013-04-28 04:42:00,
2013-04-27 23:47:00,53.1,50.2,30.17,SE,142,3.0,7.0,90,0.00,,,0.01,meteohub,2013-04-28 04:47:00,
2013-04-27 23:52:00,53.1,50.2,30.17,ESE,108,4.0,7.0,90,0.00,,,0.01,meteohub,2013-04-28 04:52:00,
2013-04-27 23:57:00,52.9,50.0,30.17,ESE,113,4.0,6.0,90,0.00,,,0.01,meteohub,2013-04-28 04:57:00,